Other Public Products
Issued by NWS Grand Forks, ND

Home | Current Version | Previous Version | Text Only | Print | Product List | Glossary On
Versions: 1 2 3 4 5 6 7 8 9 10 11 12 13 14 15 16 17 18 19 20 21 22 23 24 25 26 27 28 29 30 31 32 33 34 35 36 37 38 39 40 41 42 43 44 45 46 47 48 49 50
000
FPUS83 KFGF 281031
OPUFGF
PRAIRIE TO PINES WEATHER ROUNDUP
NATIONAL WEATHER SERVICE EASTERN NORTH DAKOTA/GRAND FORKS ND
500 AM CDT THU JUL 28 2016

 **SATELLITE DATA USED TO AUGMENT SKY COVER AT AUTOMATED STATIONS**
 *****  WEATHER ACROSS EASTERN NORTH DAKOTA  *****

CITY           SKY/WX    TMP DP  RH WIND       PRES   REMARKS
GRAND FORKS    PTCLDY    58  56  93 N5        30.09S
GRAND FORKS AF CLOUDY    59  56  91 NE7       30.10F
GRAND CITY NWS   N/A     59 N/A N/A N2          N/A
BUXTON           N/A     61  60  98 N3          N/A
DEVILS LAKE    CLEAR     54  53  97 N8        30.15S
FARGO          CLOUDY    63  60  90 N5        30.05F
WAHPETON ARPT  CLOUDY    61  57  88 N6        30.06R
$$

 *****  WEATHER ACROSS CENTRAL AND WESTERN NORTH DAKOTA  *****

CITY           SKY/WX    TMP DP  RH WIND       PRES   REMARKS
JAMESTOWN      CLOUDY    56  55  97 NW5       30.11R
BISMARCK       CLOUDY    63  58  83 E5        30.14R
MINOT          CLOUDY    62  57  83 CALM      30.15S
MINOT AFB      CLOUDY    60  56  87 E3        30.15S
GARRISON         N/A     61  59  93 NE5       30.14S
WILLISTON      CLOUDY    63  59  87 NE5       30.15S
DICKINSON      FOG       59  59 100 E7        30.12S VSB 1/2
HETTINGER      CLOUDY    59  58  96 CALM      30.13F
$$

 *****  OTHER OBSERVATIONS NORTHEAST NORTH DAKOTA  *****

CITY           SKY/WX    TMP DP  RH WIND       PRES   REMARKS
WALHALLA       FAIR      54  48  82 NW5       30.16R
LANGDON        FAIR      50  50 100 N3        30.16S
CAVALIER       FAIR      55  54  94 N5        30.14S
GRAFTON        PTSUNNY   57  57 100 N7        30.14S
CANDO          FAIR      50  50 100 N7        30.18S
FORT TOTTEN      N/A     59  55  87 NE2       29.95S
ROLLA          CLOUDY    50  50 100 NW3       30.18F
RUGBY          NOT AVBL
 ***** THE ABOVE OBSERVATIONS ARE NON NWS ARE NOT QUALITY
        CONTROLLED AND MAY MIS-REPORT RAIN FOR SNOW...
$$

 *****  OTHER OBSERVATIONS SOUTHEAST NORTH DAKOTA *****

CITY           SKY/WX    TMP DP  RH WIND       PRES   REMARKS
COOPERSTOWN    NOT AVBL
VALLEY CITY    FAIR      57  57 100 N8        30.11S
OAKES            N/A    N/A N/A N/A MISG        N/A
GWINNER        FAIR      61  57  88 N9        30.08S
SHEYENNE NWR     N/A     60  58  92 N3        29.95S
BUFFALO          N/A     43  55 100 N6          N/A
WYNDMERE         N/A     61  61 100 N3          N/A
 ***** THE ABOVE OBSERVATIONS ARE NON NWS ARE NOT QUALITY
       CONTROLLED AND MAY MIS-REPORT RAIN FOR SNOW...
$$

  *****  WEATHER ACROSS NORTHERN MINNESOTA  *****

CITY           SKY/WX    TMP DP  RH WIND       PRES   REMARKS
FLAG ISLAND    CLEAR     61  54  77 NE6       30.12R
WARROAD        PTCLDY    55  52  88 W3        30.13S
ROSEAU         CLEAR     52  46  82 N6        30.13S
HALLOCK        CLEAR     55  54  94 NE7       30.12S
THF RVR FALLS  CLOUDY    59  55  87 NE10      30.10F
HALSTAD          N/A     61  59  93 N6          N/A
FOSSTON        MOCLDY    57  54  88 N5        30.09S
BAUDETTE       CLEAR     55  51  86 N5        30.11S
WASKISH        PTCLDY    55  54  94 NE3       30.10S
CROOKSTON      CLOUDY    61  57  88 E6        30.09S
$$
  *****  WEATHER ACROSS CENTRAL AND WEST MINNESOTA  *****

CITY           SKY/WX    TMP DP  RH WIND       PRES   REMARKS
BEMIDJI        MOCLDY    57  55  94 NE3       30.09S
PARK RAPIDS    MOCLDY    61  58  90 CALM      30.07S
WADENA           N/A     57  57 100 CALM      30.06S FOG
DETROIT LAKES  PTCLDY    63  61  94 NE5       30.08S
MOORHEAD       CLOUDY    61  61 100 CALM      30.07R
FERGUS FALLS   PTCLDY    64  64 100 E5        30.07R
ELBOW LAKE     FAIR      64  63  95 NE6       30.06R
MORRIS MN      CLOUDY    63  61  94 NE6       30.03F FOG
STAPLES        PTCLDY    59  57  94 CALM      30.07R
WHEATON        PTCLDY    61  61 100 NW3       30.07R
$$
  *****  WEATHER ELSEWHERE ACROSS MINNESOTA  *****

CITY           SKY/WX    TMP DP  RH WIND       PRES   REMARKS
DULUTH         CLOUDY    58  55  90 NE6       30.06S
INTRNTL FALLS  CLEAR     58  53  84 CALM      30.10S
ELY            FOG       54  54 100 CALM      30.09S VSB 1/2
CLOQUET        MOCLDY    55  54  94 CALM      30.06R
BRAINERD       MOCLDY    60  59  96 NE5       30.06R
HIBBING        FOG       49  49 100 CALM      30.07F VSB 1
ALEXANDRIA     MOCLDY    63  61  93 NE5       30.07S
SAINT CLOUD    CLOUDY    59  58  96 NW5       30.03R
MINNEAPOLIS    CLOUDY    66  62  87 NE10      29.98F
$$

  *****  WEATHER ACROSS SOUTH DAKOTA  *****

CITY           SKY/WX    TMP DP  RH WIND       PRES   REMARKS
SIOUX FALLS    MOCLDY    63  58  83 CALM      30.03S
BROOKINGS      PTCLDY    60  57  89 N6        30.04S
WATERTOWN      CLOUDY    61  58  90 N6        30.05S
HURON          PTCLDY    60  58  92 NW5       30.05S
SISSETON         N/A     61  58  90 N8        30.05R
ABERDEEN       PTCLDY    61  57  87 N7        30.07F
MITCHELL       CLEAR     62  60  93 N5        30.06R
PIERRE         CLOUDY    61  59  93 NE7       30.08R
MOBRIDGE       PTCLDY    62  58  86 SE5       30.08R
RAPID CITY     RAIN      65  59  81 W9        30.15R
$$

  *****  SOME WEATHER IN NEARBY STATES *****

CITY           SKY/WX    TMP DP  RH WIND       PRES   REMARKS
GLASGOW MT     PTCLDY    58  56  93 NE10      30.14F
GREAT FALLS MT MOCLDY    58  51  78 CALM      30.19S
CHEYENNE WY    CLEAR     59  55  87 S9        30.20F
SCOTTSBLUFF NE PTCLDY    61  57  87 E8        30.11F
OMAHA NE       MOCLDY    71  68  90 N10       29.98R
DES MOINES IA  PTCLDY    72  67  84 NE10      29.94S
DAVENPORT IA   FOG       65  64  97 CALM      29.89S VSB 1/4
CHICAGO IL     MOCLDY    73  65  75 CALM      29.89S
EAU CLAIRE WI  CLOUDY    65  65 100 N6        29.95S
LA CROSSE WI   CLOUDY    69  66  90 N8        29.90S
$$

  *****  SOME NATIONAL WEATHER *****

CITY           SKY/WX    TMP DP  RH WIND       PRES   REMARKS
LA GUARDIA NY  PTCLDY    80  72  76 NW5       29.90S
RALEIGH NC     MOCLDY    74  72  93 CALM      29.93R
ATLANTA GA     CLEAR     75  70  84 SW9       30.03S
NEW ORLEANS LA PTCLDY    79  76  90 CALM      30.03S
OKLAHOMA CITY  PTCLDY    72  71  97 SE5       29.97R
ALBUQUERQUE NM PTCLDY    73  54  51 E15       30.22S
SALT LAKE CITY CLEAR     76  40  27 SE9       30.02S
LOS ANGELES CA PTCLDY    69  64  84 W7        29.89S
BOISE ID       CLEAR     70  47  43 CALM      30.02R
SEATTLE WA     CLEAR     68  60  75 NE6       30.11S
$$

*** WEATHER ACROSS MANITOBA...SASKATCHEWAN AND ONTARIO ***
                ***ONTARIO***

CITY           SKY/WX    TMP DP  RH WIND       PRES   REMARKS
GERALDTON      PTCLDY    48  46  93 NW3       30.10S
THUNDER BAY    CLEAR     48  48 100 NW3       30.09R
SIOUX LOOKOUT  PTCLDY    48  48 100 NE3       30.14S
TORONTO        MOCLDY    73  61  64 N8        29.91S
BIG TROUT LK   NOT AVBL
PICKLE LAKE    NOT AVBL
DRYDEN         CLOUDY    54  52  94 NE7       30.13S
KENORA         MOCLDY    55  52  88 N5        30.14S
$$
                *** MANITOBA***

CITY           SKY/WX    TMP DP  RH WIND       PRES   REMARKS
BRANDON        PTCLDY    48  46  93 NW2       30.17F
DAUPHIN        CLEAR     46  45  93 W6        30.16R
ISLAND LAKE    PTCLDY    57  50  77 SW6       30.13S
PILOT MOUND      N/A     48  48 100 N2          N/A
THE PAS        PTCLDY    59  57  94 CALM      30.06R
THOMPSON       MOCLDY    57  52  82 S2        30.04F
WINNIPEG       CLEAR     46  46 100 NW5       30.16R
LYNN LAKE      PTCLDY    54  54 100 MISG      30.05S
CHURCHILL      MOCLDY    57  52  82 SW7       29.99S
GILLAM         PTCLDY    54  46  76 SW7       30.06S
$$
                ***SASKATCHEWAN***

CITY           SKY/WX    TMP DP  RH WIND       PRES   REMARKS
ESTEVAN        MOCLDY    52  50  93 E3        30.17S
KINDERSLEY     PTCLDY    55  54  94 S7        30.15S
LLOYDMINSTER   CLEAR     57  55  94 SW7       30.12S
PRINCE ALBERT  PTCLDY    59  55  88 SW5       30.11
REGINA         CLEAR     54  52  94 SE6       30.18S
YORKTON        CLEAR     57  52  82 SW7       30.17R   C1F1C2F2C3F3C4F4C5F5C6F6C7F7C8F8C9F9CaFaCbFbCcFcCdFdCe!



USA.gov is the U.S. government's official web portal to all federal, state and local government web resources and services.